TimeCST,TemperatureF,Dew PointF,Humidity,Sea Level PressureIn,VisibilityMPH,Wind Direction,Wind SpeedMPH,Gust SpeedMPH,PrecipitationIn,Events,Conditions,WindDirDegrees,DateUTC
12:13 AM,-4.9,-10.3,78,30.30,10.0,West,6.9,-,N/A,,Clear,280,2013-12-06 06:13:00
12:32 AM,-5.3,-10.7,77,30.31,10.0,West,8.1,-,N/A,,Clear,270,2013-12-06 06:32:00
12:52 AM,-6.0,-11.2,78,30.31,10.0,West,9.2,-,N/A,,Clear,270,2013-12-06 06:52:00
1:12 AM,-6.3,-11.4,79,30.31,10.0,West,9.2,-,N/A,,Clear,270,2013-12-06 07:12:00
1:32 AM,-6.7,-11.4,80,30.31,10.0,West,8.1,-,N/A,,Clear,270,2013-12-06 07:32:00
1:53 AM,-6.7,-11.7,79,30.32,10.0,West,6.9,-,N/A,,Clear,260,2013-12-06 07:53:00
2:12 AM,-7.1,-11.9,79,30.33,10.0,West,5.8,-,N/A,,Clear,260,2013-12-06 08:12:00
2:33 AM,-7.4,-12.1,80,30.33,10.0,West,3.5,-,N/A,,Clear,270,2013-12-06 08:33:00
2:52 AM,-7.2,-12.1,79,30.33,10.0,West,5.8,-,N/A,,Clear,270,2013-12-06 08:52:00
3:13 AM,-7.6,-12.3,80,30.33,10.0,West,8.1,-,N/A,,Clear,270,2013-12-06 09:13:00
3:33 AM,-7.6,-12.3,80,30.33,10.0,West,8.1,-,N/A,,Clear,280,2013-12-06 09:33:00
3:52 AM,-7.6,-12.3,80,30.33,10.0,West,6.9,-,N/A,,Clear,280,2013-12-06 09:52:00
4:13 AM,-8.0,-12.6,80,30.33,10.0,West,4.6,-,N/A,,Clear,280,2013-12-06 10:13:00
4:33 AM,-8.1,-12.8,80,30.34,10.0,West,5.8,-,N/A,,Clear,270,2013-12-06 10:33:00
4:52 AM,-8.5,-13.2,80,30.35,10.0,West,6.9,-,N/A,,Clear,270,2013-12-06 10:52:00
5:13 AM,-8.9,-13.5,80,30.36,10.0,West,6.9,-,N/A,,Clear,270,2013-12-06 11:13:00
5:32 AM,-8.9,-13.5,80,30.37,10.0,West,5.8,-,N/A,,Clear,270,2013-12-06 11:32:00
5:53 AM,-8.5,-13.0,81,30.37,10.0,West,5.8,-,N/A,,Clear,280,2013-12-06 11:53:00
6:13 AM,-8.9,-13.7,79,30.38,10.0,WSW,3.5,-,N/A,,Clear,250,2013-12-06 12:13:00
6:33 AM,-9.6,-14.1,81,30.40,10.0,West,4.6,-,N/A,,Clear,270,2013-12-06 12:33:00
6:53 AM,-10.5,-15.0,80,30.40,10.0,West,4.6,-,N/A,,Clear,270,2013-12-06 12:53:00
7:12 AM,-10.7,-15.0,81,30.41,10.0,West,8.1,-,N/A,Snow,Light Snow,270,2013-12-06 13:12:00
7:33 AM,-9.0,-13.5,81,30.41,10.0,West,9.2,-,N/A,,Clear,280,2013-12-06 13:33:00
7:52 AM,-8.9,-13.7,79,30.42,10.0,West,9.2,-,N/A,,Clear,280,2013-12-06 13:52:00
8:13 AM,-8.9,-13.9,79,30.43,10.0,WSW,6.9,-,N/A,,Clear,250,2013-12-06 14:13:00
8:32 AM,-8.5,-13.5,79,30.43,10.0,West,6.9,-,N/A,,Clear,260,2013-12-06 14:32:00
8:52 AM,-7.8,-13.0,78,30.44,10.0,West,9.2,-,N/A,,Clear,280,2013-12-06 14:52:00
9:13 AM,-6.7,-12.3,77,30.45,10.0,West,11.5,-,N/A,,Clear,280,2013-12-06 15:13:00
9:32 AM,-6.2,-12.1,75,30.45,10.0,West,11.5,19.6,N/A,,Clear,280,2013-12-06 15:32:00
9:52 AM,-5.6,-12.1,74,30.46,10.0,WNW,10.4,-,N/A,,Clear,290,2013-12-06 15:52:00
10:13 AM,-4.9,-11.4,74,30.47,10.0,WNW,10.4,-,N/A,,Clear,290,2013-12-06 16:13:00
10:32 AM,-4.2,-11.2,72,30.47,10.0,WNW,11.5,-,N/A,,Clear,290,2013-12-06 16:32:00
10:53 AM,-4.0,-10.8,72,30.48,10.0,West,11.5,-,N/A,,Clear,270,2013-12-06 16:53:00
11:13 AM,-3.6,-10.7,72,30.48,10.0,West,11.5,-,N/A,,Clear,270,2013-12-06 17:13:00
11:32 AM,-3.3,-10.5,71,30.48,10.0,West,10.4,-,N/A,,Clear,280,2013-12-06 17:32:00
11:53 AM,-2.7,-10.5,70,30.47,10.0,West,9.2,-,N/A,,Clear,280,2013-12-06 17:53:00
12:13 PM,-2.7,-10.5,70,30.47,10.0,West,9.2,-,N/A,,Clear,280,2013-12-06 18:13:00
12:32 PM,-2.2,-10.1,69,30.47,10.0,West,9.2,-,N/A,,Clear,280,2013-12-06 18:32:00
12:53 PM,-2.2,-10.3,68,30.47,10.0,WNW,9.2,-,N/A,,Clear,290,2013-12-06 18:53:00
1:13 PM,-1.7,-9.6,69,30.47,10.0,West,10.4,-,N/A,,Clear,280,2013-12-06 19:13:00
1:32 PM,-1.7,-9.6,69,30.47,10.0,West,11.5,-,N/A,,Clear,270,2013-12-06 19:32:00
1:52 PM,-1.5,-9.6,69,30.47,10.0,West,10.4,-,N/A,,Clear,280,2013-12-06 19:52:00
2:13 PM,-1.3,-9.6,68,30.47,10.0,West,11.5,-,N/A,,Clear,270,2013-12-06 20:13:00
2:33 PM,-1.5,-10.3,66,30.47,10.0,West,13.8,-,N/A,,Clear,270,2013-12-06 20:33:00
2:52 PM,-1.7,-9.9,68,30.48,10.0,West,8.1,-,N/A,,Clear,280,2013-12-06 20:52:00
3:12 PM,-1.7,-9.6,69,30.48,10.0,WNW,10.4,-,N/A,,Clear,290,2013-12-06 21:12:00
3:33 PM,-2.4,-10.3,69,30.49,10.0,WNW,8.1,-,N/A,,Clear,290,2013-12-06 21:33:00
3:53 PM,-3.3,-11.0,69,30.50,10.0,West,8.1,-,N/A,,Clear,280,2013-12-06 21:53:00
4:12 PM,-4.2,-11.7,70,30.51,10.0,West,10.4,-,N/A,,Clear,280,2013-12-06 22:12:00
4:33 PM,-5.6,-13.0,70,30.51,10.0,WNW,9.2,-,N/A,,Clear,290,2013-12-06 22:33:00
4:53 PM,-6.2,-13.0,72,30.51,10.0,WNW,9.2,-,N/A,,Clear,290,2013-12-06 22:53:00
5:13 PM,-6.9,-13.2,74,30.51,10.0,WNW,10.4,-,N/A,,Clear,290,2013-12-06 23:13:00
5:33 PM,-7.2,-13.9,73,30.52,10.0,West,9.2,-,N/A,,Clear,280,2013-12-06 23:33:00
5:52 PM,-7.6,-14.1,73,30.53,10.0,West,12.7,-,N/A,,Clear,280,2013-12-06 23:52:00
6:13 PM,-7.8,-14.4,73,30.53,10.0,West,11.5,-,N/A,,Clear,280,2013-12-07 00:13:00
6:33 PM,-8.1,-14.8,73,30.53,10.0,WNW,9.2,-,N/A,,Clear,290,2013-12-07 00:33:00
6:53 PM,-8.5,-14.8,74,30.54,10.0,WNW,8.1,-,N/A,,Clear,290,2013-12-07 00:53:00
7:13 PM,-8.7,-14.8,75,30.55,10.0,West,6.9,-,N/A,,Clear,280,2013-12-07 01:13:00
7:32 PM,-9.4,-15.3,75,30.55,10.0,West,6.9,-,N/A,,Clear,280,2013-12-07 01:32:00
7:52 PM,-9.4,-15.2,76,30.55,10.0,West,9.2,-,N/A,,Clear,280,2013-12-07 01:52:00
8:13 PM,-9.4,-15.2,76,30.56,10.0,WNW,5.8,-,N/A,,Clear,290,2013-12-07 02:13:00
8:33 PM,-9.4,-15.2,76,30.56,10.0,WNW,6.9,-,N/A,,Clear,290,2013-12-07 02:33:00
8:52 PM,-9.6,-15.3,76,30.57,10.0,Calm,Calm,-,N/A,,Clear,0,2013-12-07 02:52:00
9:12 PM,-10.3,-15.9,76,30.57,10.0,Calm,Calm,-,N/A,,Clear,0,2013-12-07 03:12:00
9:33 PM,-12.1,-17.5,77,30.57,10.0,Calm,Calm,-,N/A,,Clear,0,2013-12-07 03:33:00
9:52 PM,-13.9,-18.9,78,30.57,10.0,Calm,Calm,-,N/A,,Clear,0,2013-12-07 03:52:00
10:12 PM,-13.2,-18.4,77,30.58,10.0,Calm,Calm,-,N/A,,Clear,0,2013-12-07 04:12:00
10:32 PM,-12.8,-17.7,79,30.58,10.0,West,6.9,-,N/A,,Clear,270,2013-12-07 04:32:00
10:52 PM,-14.1,-18.8,79,30.59,10.0,West,5.8,-,N/A,,Clear,270,2013-12-07 04:52:00
11:13 PM,-11.4,-16.4,78,30.59,10.0,West,5.8,-,N/A,,Clear,280,2013-12-07 05:13:00
11:33 PM,-13.0,-18.4,77,30.60,10.0,Calm,Calm,-,N/A,,Clear,0,2013-12-07 05:33:00
11:52 PM,-13.2,-18.4,77,30.60,10.0,Calm,Calm,-,N/A,,Clear,0,2013-12-07 05:52:00